Location: Unspecified
(49.8670°N, 0.0000°E)
Time: 08:26:04
(UTC+00:00)

Courier 1B - Pass Details

Date: 21 June 2019
Orbit: 963 x 1209 km, 28.3° (Epoch: 21 July)

Event Time Altitude Azimuth Distance (km) Brightness Sun altitude
Rises 21:14:40 0° 235° (SW) 3,977 10.7 -7.9°
Reaches altitude 10° 21:19:19 10° 210° (SSW) 3,066 9.9 -8.3°
Maximum altitude 21:22:26 13° 185° (S) 2,874 9.5 -8.6°
Drops below altitude 10° 21:25:36 10° 161° (SSE) 3,115 9.5 -8.9°
Enters shadow 21:25:56 - 159° (SSE) 3,163 9.5 -9.0°
